Content
SEND FEEDBACK

Canada Flag

QUEBEC CITY AIRPORT, QUEBEC


Home > North America > Canada > Quebec
Elevation: 244 feet     Latitude: 46 48N     Longitude: 71 23W

WEATHER
 
SELECT A DAY
Number of Records: 215,370;   Date Range: 6/30/96 - 3/22/16
 
SHARE

PRINT THIS DATA

[ ← Previous Day ]
WEATHER ALMANAC - FEBRUARY 3, 2013
[ Next Day → ]
[ °C ]   °F
Weather ElementAverageHighLow
Temperature8 °F17.6 °F (3:00 pm)-4 °F (6:00 am)
Dewpoint0.5 °F10 °F (7:00 pm)-13 °F (1:00 am)
Humidity67.8 %79 % (7:00 pm)60 % (1:00 am)
Barometer25.71 in30.11 in (1:00 am) (7:00 pm)
Wind Speed7.1 mph15 mph (10:00 am)
Wind Gust17.3 mph (11:00 am)
Weather ElementAverage
Visibility22.3 mi
Wind DirectionENE (62 °)

Weather ElementTotal
Precipitation---
Heating Degree Days58.2 (Base 65)
Averaged from 35 records on February 3, 2013
WEATHER CONDITIONS BREAKOUT
WIND DIRECTION BREAKOUT
WEATHER BY HOUR - FEBRUARY 3, 2013
[ °C ]   °F
Local TimeTemperatureDewpointHumidityBarometerVisibilityWind DirectionWind SpeedGust SpeedPrecipitationEventsConditions
1:00 AM-3.0 °F-8.0 °F67 %30.10 inNorth2.3 mph
1:00 AM-2.2 °F-13.0 °F60 %30.11 in15.0 miNorth (10°)5.8 mphScattered Clouds
2:00 AM-0.4 °F-11.2 °F60 %30.11 in15.0 miNNE (20°)4.6 mphSnowLight Snow Showers
2:42 AM-2.2 °F0.0 °F15.0 miNNE (20°)5.8 mphScattered Clouds
3:00 AM-2.2 °F-11.2 °F66 %30.10 in15.0 miNNE (20°)5.8 mphPartly Cloudy
4:00 AM-3.0 °F-8.0 °F67 %30.10 inNorth2.3 mph
4:00 AM-2.2 °F-13.0 °F60 %30.10 in15.0 miNorth (10°)6.9 mphPartly Cloudy
5:00 AM-2.2 °F-13.0 °F60 %30.10 in15.0 miNorth (10°)6.9 mphPartly Cloudy
6:00 AM-4.0 °F-13.0 °F65 %30.09 in15.0 miNNE (20°)4.6 mphPartly Cloudy
7:00 AM-2.2 °F-13.0 °F60 %30.09 in30.0 miNorth (10°)5.8 mphPartly Cloudy
7:43 AM-2.2 °F0.0 °F30.0 miNorth (360°)4.6 mphSnowLight Snow
8:00 AM-0.4 °F-11.2 °F60 %30.09 in30.0 miNorth (10°)3.5 mphSnowLight Snow
8:34 AM1.4 °F0.0 °F30.0 miNorth (360°)2.3 mphPartly Cloudy
9:00 AM3.2 °F-5.8 °F66 %30.08 in30.0 miNorth (10°)3.5 mphPartly Cloudy
10:00 AM11.0 °F5.0 °F68 %30.05 inEast (80°)9.2 mph
10:00 AM10.4 °F3.2 °F73 %30.06 in30.0 miENE (70°)15.0 mphPartly Cloudy
11:00 AM12.2 °F5.0 °F73 %30.04 in25.0 miENE (60°)11.5 mph17.3 mphSnowLight Snow
12:00 PM14.0 °F6.8 °F73 %30.01 in30.0 miNE (50°)12.7 mphMostly Cloudy
12:08 PM14.0 °F0.0 °F30.0 miENE (60°)11.5 mph17.3 mphMostly Cloudy
1:00 PM15.0 °F8.0 °F62 %29.99 inEast (80°)8.1 mph
1:00 PM15.8 °F6.8 °F68 %29.99 in30.0 miEast (80°)9.2 mphMostly Cloudy
2:00 PM15.8 °F8.6 °F73 %29.96 in30.0 miENE (60°)8.1 mphMostly Cloudy
3:00 PM17.6 °F8.6 °F68 %29.95 in30.0 miENE (70°)8.1 mphMostly Cloudy
4:00 PM16.0 °F9.0 °F64 %29.92 inEast (80°)6.9 mph
4:00 PM15.8 °F6.8 °F68 %29.93 in30.0 miENE (70°)9.2 mphMostly Cloudy
5:00 PM15.8 °F6.8 °F68 %29.91 in30.0 miENE (70°)10.4 mphMostly Cloudy
6:00 PM14.0 °F6.8 °F73 %29.90 in15.0 miENE (60°)11.5 mphMostly Cloudy
7:00 PM15.0 °F10.0 °F73 %29.88 inENE (60°)5.8 mph
7:00 PM14.0 °F8.6 °F79 %29.88 in15.0 miENE (60°)10.4 mphScattered Clouds
8:00 PM14.0 °F6.8 °F73 %29.87 in15.0 miENE (60°)10.4 mphPartly Cloudy
9:00 PM14.0 °F6.8 °F73 %29.86 in15.0 miNE (50°)6.9 mphMostly Cloudy
9:34 PM14.0 °F0.0 °F15.0 miENE (60°)6.9 mphSnowLight Snow
10:00 PM15.0 °F9.0 °F67 %29.85 inNE (50°)2.3 mph
10:00 PM14.0 °F6.8 °F73 %29.85 in15.0 miNE (40°)3.5 mphScattered Clouds
11:00 PM14.0 °F6.8 °F73 %29.83 in15.0 miNE (40°)4.6 mphScattered Clouds
Hourly data recorded from CYQB, located miles away from Quebec City Airport, Quebec




STORIES FROM OUR PARTNERS